Вернуться в каталог

STARLINK-4557

АктивенСвязьVLEO
NORAD 53432·PAYLOAD·🇺🇸 United States

Запущен Aug 10, 2022 с Cape Canaveral Space Force Station

Loading…

Ближайшие Пролёты (ближайшие 24 часа)

TLE

СвежийSource: CelesTrak SupGP

Эпоха: Sep 14, 2026, 21:34 UTC

1 53432C 22097AW  26257.89909722 -.00019820  00000+0 -58574-3 0  2575
2 53432  53.1588 319.8141 0001256  87.5866 202.0616 15.34392666    13

Отслеживайте STARLINK-4557 в реальном времени с AllMySat

Download on the App Store